This is the latest recevied weather packets stored in our database for station/object KD0ISH. If no packets are shown the sender has not sent any weather packets the latest 10 day(s).
| Time | Temp. | Humidity | Pressure | Rain* | Wind** | Luminosity | Snow |
|---|---|---|---|---|---|---|---|
| 1777238177 | 25.56° C | 62% | 1007.5 hPa | 0 mm | - | 86 W/m² | - |
| 1777237875 | 26.11° C | 62% | 1007.7 hPa | 0 mm | - | 104 W/m² | - |
| 1777237571 | 26.11° C | 61% | 1007.8 hPa | 0 mm | - | 111 W/m² | - |
| 1777237268 | 26.11° C | 60% | 1007.5 hPa | 0 mm | - | 143 W/m² | - |
| 1777236965 | 26.11° C | 61% | 1007.7 hPa | 0 mm | - | 162 W/m² | - |
| 1777236662 | 26.67° C | 60% | 1007.6 hPa | 0 mm | - | 163 W/m² | - |
| 1777236357 | 26.67° C | 59% | 1007.5 hPa | 0 mm | - | 233 W/m² | - |
| 1777236053 | 26.67° C | 60% | 1007.7 hPa | 0 mm | - | 273 W/m² | - |
| 1777235750 | 26.67° C | 59% | 1007.8 hPa | 0 mm | - | 416 W/m² | - |
| 1777235447 | 26.67° C | 60% | 1007.9 hPa | 0 mm | - | 448 W/m² | - |
| 1777235143 | 26.67° C | 58% | 1008.2 hPa | 0 mm | - | 419 W/m² | - |
| 1777234839 | 26.67° C | 59% | 1008.3 hPa | 0 mm | - | 304 W/m² | - |
| 1777234535 | 27.22° C | 58% | 1008.4 hPa | 0 mm | - | 308 W/m² | - |
| 1777234234 | 27.22° C | 59% | 1008.5 hPa | 0 mm | - | 549 W/m² | - |
| 1777233931 | 27.22° C | 59% | 1008.4 hPa | 0 mm | - | 420 W/m² | - |
| 1777233628 | 27.22° C | 59% | 1008.5 hPa | 0 mm | - | 531 W/m² | - |
| 1777233327 | 27.22° C | 59% | 1008.7 hPa | 0 mm | - | 607 W/m² | - |
| 1777233023 | 26.67° C | 60% | 1008.8 hPa | 0 mm | - | 608 W/m² | - |
| 1777232720 | 27.22° C | 60% | 1008.7 hPa | 0 mm | - | 595 W/m² | - |
| 1777232418 | 26.67° C | 61% | 1008.8 hPa | 0 mm | - | 672 W/m² | - |
| 1777232115 | 26.67° C | 61% | 1009 hPa | 0 mm | - | 728 W/m² | - |
| 1777231812 | 26.67° C | 61% | 1008.6 hPa | 0 mm | - | 606 W/m² | - |
| 1777231509 | 26.11° C | 63% | 1009 hPa | 0 mm | - | 659 W/m² | - |
| 1777231205 | 26.67° C | 62% | 1009.1 hPa | 0 mm | - | 350 W/m² | - |
| 1777230901 | 26.67° C | 60% | 1009.2 hPa | 0 mm | - | 680 W/m² | - |
* Rain latest hour (hover to see other rain measurements)
** Current wind speed in m/s (hover to see current wind gust speed)